Location: Paris
(48.6709°N, 2.3750°E)
Time: 07:04:50
(UTC+02:00)

YUBILEINY - Pass Details

Date: 03 July 2022
Orbit: 1478 x 1509 km, 82.5° (Epoch: 17 August)

Event Time Altitude Azimuth Distance (km) Brightness Sun altitude
Rises 04:14:16 0° 351° (N) 4,656 ? -11.9°
Reaches altitude 10° 04:17:46 10° 3° (N) 3,667 ? -11.6°
Maximum altitude 04:25:12 29° 61° (ENE) 2,468 ? -10.9°
Drops below altitude 10° 04:32:33 10° 119° (ESE) 3,632 ? -10.2°
Sets 04:35:58 0° 130° (SE) 4,604 ? -9.8°
